sat.trackr.live / text

‹ back to catalog

STARLINK-31878

NORAD 60031 · 2024-111R

PAYLOAD ACTIVE UNKNOWN

§ Identity

Operator
Country
US
Launch date
2024-06-08
Launch site
AFETR
Launch vehicle
Mass (kg)
RCS (m²)

Purposes: comms

External: N2YO · Heavens-Above · Gunter

§ Orbital elements

Epoch: 2026-05-25T04:00:03.998880Z

Period
93.90 min
Inclination
53.1600°
Eccentricity
0.0001402
Mean motion
15.33499413 rev/d
Perigee alt
464.4 km
Apogee alt
466.3 km
Semi-major
6,843.5 km
B*
1.4278e-3
RAAN
28.5557°
Arg perigee
72.7555°
Mean anomaly
188.3821°
Rev number
585

§ Raw data

STARLINK-318781 60031U 24111R   26145.16671295  .00046805  00000+0  14278-2 0  99902 60031  53.1600  28.5557 0001402  72.7555 188.3821 15.33499413  5858

JSON: /api/v1/satellites/60031 · /tle

For live sub-satellite position, see the globe view (requires WebGL).

§ Visibility from observer

Set your observer location to see the next 7 days of passes ≥ 10°. The values pass through the URL so the page stays shareable.

No JS? Fill the form by hand. The geolocation button needs JavaScript.